This is the latest recevied weather packets stored in our database for station/object LA5NNA. If no packets are shown the sender has not sent any weather packets the latest 10 day(s).
| Time | Temp. | Humidity | Pressure | Rain* | Wind** | Luminosity | Snow |
|---|---|---|---|---|---|---|---|
| 1777323007 | 6.67° C | 64% | 1027 hPa | 0 mm | - | 0 W/m² | - |
| 1777320908 | 6.67° C | 64% | 1027 hPa | 0 mm | - | 0 W/m² | - |
| 1777318808 | 7.22° C | 63% | 1027 hPa | 0 mm | - | 0 W/m² | - |
| 1777315808 | 8.33° C | 54% | 1026.8 hPa | 0 mm | - | 0 W/m² | - |
| 1777314612 | 8.33° C | 52% | 1026.5 hPa | 0 mm | - | 0 W/m² | - |
| 1777314308 | 8.89° C | 52% | 1026.5 hPa | 0 mm | - | 0 W/m² | - |
| 1777311608 | 8.89° C | 49% | 1026.6 hPa | 0 mm | - | 0 W/m² | - |
| 1777311011 | 9.44° C | 49% | 1026.5 hPa | 0 mm | - | 0 W/m² | - |
| 1777310107 | 9.44° C | 49% | 1026.5 hPa | 0 mm | - | 0 W/m² | - |
| 1777306808 | 10° C | 49% | 1026.3 hPa | 0 mm | - | 0 W/m² | - |
| 1777303507 | 10° C | 47% | 1025.8 hPa | 0 mm | - | 0 W/m² | - |
| 1777300507 | 10° C | 46% | 1025.8 hPa | 0 mm | - | 0 W/m² | - |
| 1777295107 | 10.56° C | 50% | 1026 hPa | 0 mm | - | 0 W/m² | - |
| 1777286107 | 9.44° C | 55% | 1026 hPa | 0 mm | - | 0 W/m² | - |
| 1777282210 | 10° C | 60% | 1025.4 hPa | 0 mm | - | 0 W/m² | - |
| 1777273509 | 6.67° C | 64% | 1024.9 hPa | 0 mm | - | 0 W/m² | - |
| 1777273212 | 6.67° C | 64% | 1024.9 hPa | 0 mm | - | 0 W/m² | - |
| 1777270808 | 5.56° C | 65% | 1024.6 hPa | 0 mm | - | 0 W/m² | - |
| 1777267208 | 5° C | 65% | 1024.1 hPa | 0 mm | - | 0 W/m² | - |
| 1777264809 | 4.44° C | 67% | 1024 hPa | 0 mm | - | 0 W/m² | - |
| 1777264509 | 4.44° C | 67% | 1024 hPa | 0 mm | - | 0 W/m² | - |
| 1777262412 | 4.44° C | 69% | 1023.7 hPa | 0 mm | - | 0 W/m² | - |
| 1777257609 | 4.44° C | 69% | 1023.2 hPa | 0 mm | - | 0 W/m² | - |
| 1777257308 | 5° C | 69% | 1023.2 hPa | 0 mm | - | 0 W/m² | - |
| 1777257012 | 5° C | 69% | 1023.3 hPa | 0 mm | - | 0 W/m² | - |
* Rain latest hour (hover to see other rain measurements)
** Current wind speed in m/s (hover to see current wind gust speed)